{"data":{"norad_id":64558,"epoch":"2026-05-25T01:06:24.704064Z","epoch_age_seconds":61327,"freshness":"FRESH","line1":"1 64558U 25135AG  26145.04611926  .00011651  00000+0  44688-3 0  9997","line2":"2 64558  97.4713 261.5192 0004243 229.1098 130.9773 15.26642230 51323","mean_motion":15.2664223,"eccentricity":0.0004243,"inclination_deg":97.4713,"raan_deg":261.5192,"arg_perigee_deg":229.1098,"mean_anomaly_deg":130.9773,"bstar":0.00044688,"rev_number":5132,"period_min":94.324653917113,"perigee_km":482.94616077058,"apogee_km":488.77094739777,"semimajor_km":6863.9955540842,"source":"CELESTRAK","updated_at":"2026-05-25T13:38:04.616521Z"}}